Location: Alma
(34.4195°N, 97.6123°W)
Time: 03:49:12
(UTC+00:00)

X-37B - Visible Passes

Search period start: 07 December 2022 00:00
Search period end: 17 December 2022 00:00
Orbit: 277 x 277 km, 45.0° (Epoch: 01 November)

Date Brightness Start Highest point End Pass type
(mag) Time Alt. Az. Time Alt. Az. Time Alt. Az.
07 Dec 2.3 01:00:44 10° W 01:02:05 22° WNW 01:02:05 22° WNW visible
08 Dec 2.8 01:01:59 10° WNW 01:02:51 15° NW 01:02:51 15° NW visible
09 Dec 3.2 01:03:30 10° NW 01:03:34 10° NW 01:03:34 10° NW visible
